Location: Newark
(11.6000°N, 43.1667°E)
Time: 07:45:49
(UTC+00:00)

LightSail 2 - Pass Details

Date: 24 September 2019
Orbit: 707 x 723 km, 24.0° (Epoch: 13 October)

Event Time Altitude Azimuth Distance (km) Brightness Sun altitude
Exits shadow 00:22:37 13° 43° (NE) 1,936 7.8 -38.4°
Drops below altitude 10° 00:23:19 10° 48° (NE) 2,157 8.2 -38.2°
Sets 00:25:59 0° 58° (ENE) 3,076 9.2 -37.6°
